Simultaneous Nadir Overpasses (SNOs) Predictions

Prediction of SNOs between LANDSAT-8 and METOP-B Satellite Orbit:

Table of predicted SNOs for the next 14.0 days since TLE Epoch: 2/9/2018
Index Date (LANDSAT-8) Time (LANDSAT-8) Lat,Lon (LANDSAT-8) SZA (LANDSAT-8 ) Date (METOP-B) Time (METOP-B) Lat,Lon (METOP-B) SZA (METOP-B ) Distance(km) Time Diff (sec)
1 02/10/2018 09:22:31 81.11, 78.82 97.02 02/10/2018 09:21:26 81.11, 78.63 96.98 3.28 65
2 02/10/2018 10:11:56 -81.16,-112.90 82.91 02/10/2018 10:12:04 -81.15,-112.91 82.91 0.52 8
3 02/13/2018 04:56:44 81.12, 145.37 96.11 02/13/2018 04:55:46 81.13, 145.41 96.09 0.80 58
4 02/13/2018 05:46:10 -81.14, -46.68 83.87 02/13/2018 05:46:25 -81.15, -46.50 83.84 3.19 15
5 02/16/2018 00:30:58 81.13,-148.09 95.16 02/16/2018 00:30:08 81.13,-148.19 95.14 1.63 50
6 02/16/2018 01:20:24 -81.15, 19.88 84.80 02/16/2018 01:20:47 -81.15, 19.89 84.79 0.32 23
7 02/18/2018 20:05:12 81.13, -81.59 94.20 02/18/2018 20:04:29 81.14, -81.42 94.20 2.90 43
8 02/18/2018 20:54:38 -81.16, 86.41 85.77 02/18/2018 20:55:09 -81.15, 86.28 85.77 2.31 31
9 02/21/2018 15:39:25 81.13, -15.10 93.20 02/21/2018 15:38:50 81.14, -15.04 93.20 1.07 35




NCC Satellite Simultaneous Nadir Overpasses (SNOs) Prediction Service
